| time (UTC) | temp F | wind direction | speed MPH | gust MPH | rain 1hr in | rain 24hr in | rain mn in | humidity % | barometer mb |
| 20260509034204 | 52 | 185 | 0.0 | 2.0 | 0.00 | 0.00 | 0.00 | 81 | 1019.8 |
| 20260509033303 | 52 | 181 | 1.0 | 3.0 | 0.00 | 0.00 | 0.00 | 81 | 1019.8 |
| 20260509032404 | 52 | 195 | 1.0 | 3.0 | 0.00 | 0.00 | 0.00 | 81 | 1019.8 |
| 20260509031503 | 52 | 197 | 1.0 | 4.0 | 0.00 | 0.00 | 0.00 | 81 | 1019.8 |
| 20260509030603 | 52 | 200 | 2.0 | 6.0 | 0.00 | 0.00 | 0.00 | 81 | 1019.8 |
| 20260509024804 | 52 | 181 | 2.0 | 5.0 | 0.00 | 0.00 | 0.00 | 81 | 1019.7 |
| 20260509023903 | 52 | 190 | 2.0 | 5.0 | 0.00 | 0.00 | 0.00 | 81 | 1019.7 |
| 20260509023004 | 52 | 195 | 3.0 | 9.0 | 0.00 | 0.00 | 0.00 | 81 | 1019.8 |
| 20260509022103 | 52 | 188 | 2.0 | 6.0 | 0.00 | 0.00 | 0.00 | 81 | 1019.8 |
| 20260509021204 | 52 | 175 | 1.0 | 3.0 | 0.00 | 0.00 | 0.00 | 81 | 1019.7 |
| 20260509020304 | 52 | 157 | 1.0 | 3.0 | 0.00 | 0.00 | 0.00 | 81 | 1019.7 |
| 20260509015404 | 52 | 158 | 1.0 | 3.0 | 0.00 | 0.00 | 0.00 | 81 | 1019.6 |
| 20260509014503 | 52 | 138 | 1.0 | 3.0 | 0.00 | 0.00 | 0.00 | 80 | 1019.5 |
| 20260509013604 | 52 | 164 | 1.0 | 3.0 | 0.00 | 0.00 | 0.00 | 80 | 1019.4 |
| 20260509012703 | 52 | 195 | 1.0 | 3.0 | 0.00 | 0.00 | 0.00 | 80 | 1019.4 |
| 20260509010903 | 52 | 188 | 2.0 | 4.0 | 0.00 | 0.00 | 0.00 | 78 | 1019.1 |
| 20260509010004 | 52 | 177 | 1.0 | 6.0 | 0.00 | 0.00 | 0.00 | 77 | 1019.1 |
| 20260509005103 | 52 | 158 | 1.0 | 3.0 | 0.00 | 0.00 | 0.00 | 75 | 1018.9 |
| 20260509004203 | 53 | 160 | 1.0 | 3.0 | 0.00 | 0.00 | 0.00 | 74 | 1018.7 |
| 20260509003303 | 53 | 130 | 1.0 | 2.0 | 0.00 | 0.00 | 0.00 | 73 | 1018.8 |
| 20260509002403 | 53 | 161 | 1.0 | 2.0 | 0.00 | 0.00 | 0.00 | 72 | 1018.5 |
| 20260509001503 | 54 | 188 | 1.0 | 3.0 | 0.00 | 0.00 | 0.00 | 70 | 1018.5 |
| 20260508235703 | 56 | 203 | 1.0 | 3.0 | 0.00 | 0.00 | 0.00 | 68 | 1018.3 |
| 20260508234803 | 56 | 231 | 1.0 | 4.0 | 0.00 | 0.00 | 0.00 | 67 | 1018.1 |
| 20260508233903 | 56 | 219 | 2.0 | 4.0 | 0.00 | 0.00 | 0.00 | 65 | 1018.2 |
| 20260508233003 | 57 | 239 | 2.0 | 8.0 | 0.00 | 0.00 | 0.00 | 61 | 1018.0 |
| 20260508232103 | 57 | 269 | 3.0 | 8.0 | 0.00 | 0.00 | 0.00 | 55 | 1017.8 |
| 20260508231202 | 57 | 257 | 4.0 | 9.0 | 0.00 | 0.00 | 0.00 | 54 | 1017.8 |
| 20260508230303 | 58 | 254 | 4.0 | 9.0 | 0.00 | 0.00 | 0.00 | 54 | 1017.8 |
| 20260508224502 | 58 | 273 | 6.0 | 12.0 | 0.00 | 0.00 | 0.00 | 54 | 1017.7 |
| 20260508223602 | 58 | 275 | 5.0 | 11.0 | 0.00 | 0.00 | 0.00 | 54 | 1017.7 |
| 20260508222703 | 59 | 286 | 7.0 | 11.0 | 0.00 | 0.00 | 0.00 | 52 | 1017.6 |
| 20260508221802 | 59 | 287 | 4.0 | 8.0 | 0.00 | 0.00 | 0.00 | 52 | 1017.6 |
| 20260508220903 | 58 | 283 | 6.0 | 10.0 | 0.00 | 0.00 | 0.00 | 54 | 1017.7 |
| 20260508220003 | 57 | 278 | 5.0 | 12.0 | 0.00 | 0.00 | 0.00 | 56 | 1017.9 |
| 20260508215102 | 57 | 273 | 4.0 | 13.0 | 0.00 | 0.00 | 0.00 | 55 | 1017.8 |
| 20260508213302 | 57 | 284 | 6.0 | 13.0 | 0.00 | 0.00 | 0.00 | 56 | 1017.9 |
| 20260508211502 | 58 | 289 | 6.0 | 14.0 | 0.00 | 0.00 | 0.00 | 55 | 1017.9 |
| 20260508210602 | 58 | 292 | 7.0 | 15.0 | 0.00 | 0.00 | 0.00 | 54 | 1017.8 |
| 20260508205703 | 57 | 289 | 8.0 | 18.0 | 0.00 | 0.00 | 0.00 | 55 | 1017.9 |
| 20260508204803 | 58 | 296 | 7.0 | 16.0 | 0.00 | 0.00 | 0.00 | 55 | 1017.9 |
| 20260508203902 | 58 | 300 | 8.0 | 16.0 | 0.00 | 0.00 | 0.00 | 55 | 1017.8 |
| 20260508203002 | 58 | 301 | 10.0 | 19.0 | 0.00 | 0.00 | 0.00 | 53 | 1017.6 |
| 20260508202102 | 58 | 304 | 10.0 | 18.0 | 0.00 | 0.00 | 0.00 | 54 | 1017.7 |
| 20260508201202 | 58 | 300 | 9.0 | 20.0 | 0.00 | 0.00 | 0.00 | 53 | 1017.7 |
| 20260508200302 | 58 | 283 | 7.0 | 18.0 | 0.00 | 0.00 | 0.00 | 52 | 1017.7 |
| 20260508195402 | 56 | 284 | 9.0 | 20.0 | 0.00 | 0.00 | 0.00 | 55 | 1017.9 |
| 20260508194502 | 57 | 286 | 12.0 | 26.0 | 0.00 | 0.00 | 0.00 | 54 | 1018.0 |
| 20260508193603 | 57 | 292 | 10.0 | 19.0 | 0.00 | 0.00 | 0.00 | 53 | 1017.7 |
| 20260508192701 | 58 | 298 | 9.0 | 18.0 | 0.00 | 0.00 | 0.00 | 51 | 1017.6 |
| 20260508191801 | 60 | 295 | 9.0 | 18.0 | 0.00 | 0.00 | 0.00 | 46 | 1017.3 |
| 20260508190901 | 61 | 294 | 9.0 | 17.0 | 0.00 | 0.00 | 0.00 | 43 | 1017.2 |
| 20260508190002 | 60 | 284 | 8.0 | 19.0 | 0.00 | 0.00 | 0.00 | 43 | 1017.2 |
| 20260508185102 | 60 | 286 | 10.0 | 20.0 | 0.00 | 0.00 | 0.00 | 43 | 1017.3 |
| 20260508184202 | 60 | 277 | 10.0 | 21.0 | 0.00 | 0.00 | 0.00 | 43 | 1017.2 |
| 20260508183302 | 60 | 272 | 8.0 | 18.0 | 0.00 | 0.00 | 0.00 | 41 | 1017.2 |
| 20260508182401 | 60 | 269 | 9.0 | 17.0 | 0.00 | 0.00 | 0.00 | 42 | 1017.3 |
| 20260508181502 | 61 | 276 | 11.0 | 26.0 | 0.00 | 0.00 | 0.00 | 40 | 1017.3 |
| 20260508180601 | 62 | 278 | 9.0 | 21.0 | 0.00 | 0.00 | 0.00 | 40 | 1017.2 |
| 20260508175701 | 60 | 279 | 10.0 | 21.0 | 0.00 | 0.00 | 0.00 | 41 | 1017.2 |
| 20260508173902 | 60 | 272 | 7.0 | 16.0 | 0.00 | 0.00 | 0.00 | 44 | 1017.3 |
| 20260508173001 | 60 | 281 | 9.0 | 17.0 | 0.00 | 0.00 | 0.00 | 41 | 1017.3 |
| 20260508172101 | 60 | 282 | 9.0 | 21.0 | 0.00 | 0.00 | 0.00 | 42 | 1017.4 |
| 20260508170301 | 60 | 295 | 10.0 | 21.0 | 0.00 | 0.00 | 0.00 | 45 | 1017.3 |
| 20260508164502 | 59 | 289 | 8.0 | 14.0 | 0.00 | 0.00 | 0.00 | 44 | 1017.6 |
| 20260508163601 | 59 | 295 | 7.0 | 16.0 | 0.00 | 0.00 | 0.00 | 42 | 1017.8 |
| 20260508161801 | 58 | 300 | 9.0 | 17.0 | 0.00 | 0.00 | 0.00 | 43 | 1017.9 |
| 20260508160001 | 58 | 301 | 8.0 | 16.0 | 0.00 | 0.00 | 0.00 | 42 | 1018.1 |
| 20260508155100 | 58 | 286 | 7.0 | 13.0 | 0.00 | 0.00 | 0.00 | 41 | 1018.3 |
| 20260508154200 | 57 | 284 | 7.0 | 14.0 | 0.00 | 0.00 | 0.00 | 43 | 1018.2 |
| 20260508153301 | 57 | 287 | 7.0 | 13.0 | 0.00 | 0.00 | 0.00 | 47 | 1018.3 |
| 20260508152400 | 57 | 285 | 8.0 | 15.0 | 0.00 | 0.00 | 0.00 | 47 | 1018.3 |
| 20260508151500 | 56 | 279 | 6.0 | 13.0 | 0.00 | 0.00 | 0.00 | 50 | 1018.4 |
| 20260508150601 | 56 | 283 | 8.0 | 14.0 | 0.00 | 0.00 | 0.00 | 51 | 1018.4 |
| 20260508145700 | 56 | 287 | 7.0 | 15.0 | 0.00 | 0.00 | 0.00 | 52 | 1018.5 |
| 20260508144800 | 56 | 277 | 5.0 | 10.0 | 0.00 | 0.00 | 0.00 | 52 | 1018.4 |
| 20260508143900 | 55 | 294 | 7.0 | 13.0 | 0.00 | 0.00 | 0.00 | 48 | 1018.5 |
| 20260508143000 | 55 | 295 | 5.0 | 11.0 | 0.00 | 0.00 | 0.00 | 56 | 1018.3 |
| 20260508141200 | 54 | 291 | 7.0 | 11.0 | 0.00 | 0.00 | 0.00 | 60 | 1018.4 |
| 20260508135401 | 53 | 297 | 5.0 | 11.0 | 0.00 | 0.00 | 0.00 | 65 | 1018.4 |
| 20260508134500 | 53 | 302 | 5.0 | 13.0 | 0.00 | 0.00 | 0.00 | 68 | 1018.4 |
| 20260508133602 | 52 | 296 | 6.0 | 15.0 | 0.00 | 0.00 | 0.00 | 68 | 1018.7 |
| 20260508132701 | 52 | 306 | 8.0 | 15.0 | 0.00 | 0.00 | 0.00 | 69 | 1018.8 |
| 20260508130901 | 52 | 299 | 7.0 | 14.0 | 0.00 | 0.00 | 0.00 | 69 | 1018.9 |
| 20260508130000 | 52 | 305 | 7.0 | 15.0 | 0.00 | 0.00 | 0.00 | 67 | 1018.8 |
| 20260508124200 | 52 | 308 | 7.0 | 13.0 | 0.00 | 0.00 | 0.00 | 71 | 1018.9 |
| 20260508123300 | 52 | 301 | 6.0 | 10.0 | 0.00 | 0.00 | 0.00 | 69 | 1018.8 |
| 20260508121501 | 51 | 306 | 7.0 | 12.0 | 0.00 | 0.00 | 0.00 | 67 | 1018.6 |
| 20260508120600 | 51 | 292 | 5.0 | 9.0 | 0.00 | 0.00 | 0.00 | 69 | 1018.6 |
| 20260508115700 | 51 | 287 | 6.0 | 11.0 | 0.00 | 0.00 | 0.00 | 70 | 1018.6 |
| 20260508113901 | 50 | 289 | 5.0 | 11.0 | 0.00 | 0.00 | 0.00 | 72 | 1018.5 |
| 20260508113000 | 50 | 288 | 5.0 | 10.0 | 0.00 | 0.00 | 0.00 | 74 | 1018.4 |
| 20260508112100 | 49 | 285 | 5.0 | 8.0 | 0.00 | 0.00 | 0.00 | 76 | 1018.3 |
| 20260508111200 | 49 | 292 | 4.0 | 10.0 | 0.00 | 0.00 | 0.00 | 79 | 1018.3 |
| 20260508110300 | 48 | 290 | 3.0 | 7.0 | 0.00 | 0.00 | 0.00 | 80 | 1018.2 |
| 20260508104500 | 48 | 291 | 4.0 | 8.0 | 0.00 | 0.00 | 0.00 | 81 | 1018.1 |
| 20260508103600 | 48 | 298 | 3.0 | 8.0 | 0.00 | 0.00 | 0.00 | 80 | 1018.0 |
| 20260508100859 | 48 | 307 | 6.0 | 12.0 | 0.00 | 0.00 | 0.00 | 81 | 1017.7 |
| 20260508095959 | 48 | 315 | 6.0 | 12.0 | 0.00 | 0.00 | 0.00 | 81 | 1017.6 |
| 20260508095100 | 48 | 312 | 6.0 | 11.0 | 0.00 | 0.00 | 0.00 | 81 | 1017.5 |
| 20260508094200 | 48 | 310 | 6.0 | 12.0 | 0.00 | 0.00 | 0.00 | 81 | 1017.5 |
| 20260508093300 | 48 | 307 | 6.0 | 10.0 | 0.00 | 0.00 | 0.00 | 80 | 1017.4 |
| 20260508090559 | 47 | 317 | 2.0 | 5.0 | 0.00 | 0.00 | 0.00 | 78 | 1017.2 |
| 20260508085700 | 47 | 319 | 3.0 | 6.0 | 0.00 | 0.00 | 0.00 | 78 | 1017.3 |
| 20260508084759 | 47 | 325 | 3.0 | 6.0 | 0.00 | 0.00 | 0.00 | 77 | 1017.2 |
| 20260508083859 | 47 | 337 | 3.0 | 5.0 | 0.00 | 0.00 | 0.00 | 77 | 1017.2 |
| 20260508082059 | 47 | 322 | 5.0 | 11.0 | 0.00 | 0.00 | 0.00 | 77 | 1017.4 |
| 20260508081159 | 47 | 325 | 6.0 | 11.0 | 0.00 | 0.00 | 0.00 | 78 | 1017.5 |
| 20260508080259 | 47 | 321 | 6.0 | 11.0 | 0.00 | 0.00 | 0.00 | 79 | 1017.5 |
| 20260508075400 | 47 | 323 | 6.0 | 14.0 | 0.00 | 0.00 | 0.00 | 79 | 1017.6 |
| 20260508074459 | 47 | 322 | 6.0 | 13.0 | 0.00 | 0.00 | 0.00 | 79 | 1017.7 |
| 20260508073559 | 47 | 323 | 8.0 | 14.0 | 0.00 | 0.00 | 0.00 | 80 | 1017.8 |
| 20260508072659 | 47 | 319 | 10.0 | 17.0 | 0.00 | 0.00 | 0.00 | 79 | 1017.9 |
| 20260508071800 | 48 | 302 | 11.0 | 25.0 | 0.00 | 0.00 | 0.00 | 76 | 1017.9 |
| 20260508070900 | 50 | 312 | 6.0 | 16.0 | 0.00 | 0.00 | 0.00 | 64 | 1017.8 |
| 20260508065100 | 49 | 301 | 5.0 | 12.0 | 0.00 | 0.00 | 0.00 | 69 | 1017.4 |
| 20260508064159 | 47 | 296 | 3.0 | 7.0 | 0.00 | 0.00 | 0.00 | 76 | 1017.1 |
| 20260508063259 | 44 | 335 | 1.0 | 3.0 | 0.00 | 0.00 | 0.00 | 84 | 1016.0 |
| 20260508062359 | 42 | 0 | 0.0 | 0.0 | 0.00 | 0.00 | 0.00 | 90 | 1015.9 |
| 20260508061459 | 42 | 0 | 0.0 | 0.0 | 0.00 | 0.00 | 0.00 | 89 | 1015.8 |
| 20260508054759 | 43 | 0 | 0.0 | 0.0 | 0.00 | 0.00 | 0.00 | 87 | 1015.6 |
| 20260508053859 | 43 | 0 | 0.0 | 0.0 | 0.00 | 0.00 | 0.00 | 86 | 1015.7 |
| 20260508052959 | 44 | 0 | 0.0 | 0.0 | 0.00 | 0.00 | 0.00 | 85 | 1015.7 |
| 20260508052059 | 45 | 0 | 0.0 | 0.0 | 0.00 | 0.00 | 0.00 | 83 | 1015.6 |
| 20260508050258 | 45 | 47 | 0.0 | 2.0 | 0.00 | 0.00 | 0.00 | 89 | 1015.6 |
| 20260508045400 | 44 | 82 | 0.0 | 1.0 | 0.00 | 0.00 | 0.00 | 90 | 1015.5 |
| 20260508044458 | 44 | 82 | 0.0 | 2.0 | 0.00 | 0.00 | 0.00 | 89 | 1015.5 |
| 20260508043558 | 44 | 0 | 0.0 | 0.0 | 0.00 | 0.00 | 0.00 | 89 | 1015.6 |
| 20260508042658 | 45 | 0 | 0.0 | 0.0 | 0.00 | 0.00 | 0.00 | 89 | 1015.7 |
| 20260508041758 | 45 | 0 | 0.0 | 0.0 | 0.00 | 0.00 | 0.00 | 89 | 1015.7 |
| 20260508040859 | 45 | 0 | 0.0 | 0.0 | 0.00 | 0.00 | 0.00 | 88 | 1015.8 |
| 20260508035959 | 45 | 0 | 0.0 | 0.0 | 0.00 | 0.00 | 0.00 | 88 | 1015.7 |